Location: Unspecified
(0.0000°N, 0.0000°E)
Time: 12:29:50
(UTC+00:00)

Envisat - Pass Details

Date: 08 October 2022
Orbit: 763 x 765 km, 98.2° (Epoch: 08 December)

Event Time Altitude Azimuth Distance (km) Brightness Sun altitude
Rises 04:23:33 0° 357° (N) 3,214 6.1 -20.9°
Reaches altitude 10° 04:25:59 10° 349° (N) 2,291 5.3 -20.3°
Maximum altitude 04:30:38 38° 282° (WNW) 1,155 3.4 -19.1°
Drops below altitude 10° 04:35:18 10° 215° (SW) 2,299 5.2 -18.0°
Sets 04:37:45 0° 207° (SSW) 3,226 6.0 -17.4°
